Location: Newark
(40.3820°N, 3.6624°W)
Time: 21:19:20
(UTC+00:00)

N. Korean satellite - Visible Passes

Search period start: 17 November 2019 00:00
Search period end: 27 November 2019 00:00
Orbit: 456 x 506 km, 97.2° (Epoch: 17 November)

Date Brightness Start Highest point End Pass type
(mag) Time Alt. Az. Time Alt. Az. Time Alt. Az.
17 Nov 9.1 05:28:31 10° NE 05:31:38 25° E 05:34:41 10° SSE visible
17 Nov 7.5 17:35:58 10° S 17:39:30 55° W 17:43:07 10° NNW visible
18 Nov 10.1 05:04:27 10° ENE 05:06:04 12° E 05:07:40 10° ESE visible
19 Nov 6.6 06:10:37 10° N 06:14:19 87° WNW 06:17:58 10° SSW visible
19 Nov 9.9 18:20:01 10° SW 18:22:18 16° W 18:24:37 10° NW visible
20 Nov 8.0 05:45:24 10° NNE 05:48:55 41° E 05:52:22 10° S visible
20 Nov 8.7 17:53:29 10° SSW 17:56:46 32° W 18:00:07 10° NNW visible
21 Nov 9.5 05:20:38 10° NE 05:23:24 20° E 05:26:09 10° SE visible
21 Nov 7.0 17:27:41 10° S 17:31:19 72° WSW 17:35:01 10° NNW visible
22 Nov 6.8 06:27:54 10° N 06:31:29 50° WNW 06:35:00 10° SSW visible
23 Nov 6.9 06:02:28 10° NNE 06:06:08 73° E 06:09:45 10° S visible
23 Nov 9.6 18:11:19 10° SW 18:14:03 20° W 18:16:50 10° NW visible
24 Nov 8.5 05:37:21 10° NNE 05:40:41 32° E 05:43:57 10° SSE visible
24 Nov 8.1 17:45:04 10° S 17:48:32 41° W 17:52:03 10° NNW visible
25 Nov 9.8 05:12:50 10° NE 05:15:08 16° E 05:17:24 10° SE visible
25 Nov 6.6 17:19:26 10° SSE 17:23:06 89° E 17:26:51 10° NNW visible
26 Nov 6.5 06:19:39 10° N 06:23:17 64° WNW 06:26:50 10° SSW visible
26 Nov 10.1 18:29:46 10° WSW 18:31:21 12° W 18:32:56 10° WNW visible
